Time,TemperatureF,DewpointF,PressureIn,WindDirection,WindDirectionDegrees,WindSpeedMPH,WindSpeedGustMPH,Humidity,HourlyPrecipIn,Conditions,Clouds,dailyrainin,SoftwareType,DateUTC
2013-04-05 00:00:00,35.0,29.5,30.14,NNW,331,3.0,9.0,80,0.00,,CLR,0.00,VWS V14.01,2013-04-05 05:00:00,
2013-04-05 00:05:00,34.9,29.1,30.14,NW,317,4.0,8.0,79,0.00,,CLR,0.00,VWS V14.01,2013-04-05 05:05:00,
2013-04-05 00:10:00,34.8,29.0,30.14,NNW,348,7.0,8.0,79,0.00,,CLR,0.00,VWS V14.01,2013-04-05 05:10:00,
2013-04-05 00:15:00,34.7,28.9,30.14,North,6,7.0,8.0,79,0.00,,CLR,0.00,VWS V14.01,2013-04-05 05:15:00,
2013-04-05 00:20:00,34.7,28.9,30.14,NNW,336,5.0,9.0,79,0.00,,CLR,0.00,VWS V14.01,2013-04-05 05:20:00,
2013-04-05 00:25:00,34.5,28.7,30.14,North,4,3.0,9.0,79,0.00,,CLR,0.00,VWS V14.01,2013-04-05 05:25:00,
2013-04-05 00:30:00,34.4,28.9,30.14,NNW,346,9.0,10.0,80,0.00,,CLR,0.00,VWS V14.01,2013-04-05 05:30:00,
2013-04-05 00:35:00,34.3,28.8,30.14,NW,316,2.0,8.0,80,0.00,,CLR,0.00,VWS V14.01,2013-04-05 05:35:00,
2013-04-05 00:40:00,34.1,28.9,30.14,North,349,2.0,8.0,81,0.00,,CLR,0.00,VWS V14.01,2013-04-05 05:40:00,
2013-04-05 00:45:00,34.1,28.9,30.15,NNW,328,4.0,8.0,81,0.00,,CLR,0.00,VWS V14.01,2013-04-05 05:45:00,
2013-04-05 00:50:00,33.9,28.7,30.15,North,356,5.0,8.0,81,0.00,,CLR,0.00,VWS V14.01,2013-04-05 05:50:00,
2013-04-05 00:55:00,33.7,28.5,30.15,NW,325,4.0,8.0,81,0.00,,CLR,0.00,VWS V14.01,2013-04-05 05:55:00,
2013-04-05 01:00:00,33.6,28.7,30.15,North,349,3.0,8.0,82,0.00,,CLR,0.00,VWS V14.01,2013-04-05 06:00:00,
2013-04-05 01:05:00,33.5,28.6,30.14,NNE,29,3.0,9.0,82,0.00,,CLR,0.00,VWS V14.01,2013-04-05 06:05:00,
2013-04-05 01:10:00,33.5,28.6,30.14,NNW,347,4.0,9.0,82,0.00,,CLR,0.00,VWS V14.01,2013-04-05 06:10:00,
2013-04-05 01:15:00,33.4,28.5,30.15,NNW,332,6.0,9.0,82,0.00,,CLR,0.00,VWS V14.01,2013-04-05 06:15:00,
2013-04-05 01:20:00,33.4,28.5,30.15,NNW,342,3.0,9.0,82,0.00,,CLR,0.00,VWS V14.01,2013-04-05 06:20:00,
2013-04-05 01:25:00,33.3,28.4,30.15,NNE,28,7.0,9.0,82,0.00,,CLR,0.00,VWS V14.01,2013-04-05 06:25:00,
2013-04-05 01:30:00,33.2,28.3,30.15,NNE,25,4.0,9.0,82,0.00,,CLR,0.00,VWS V14.01,2013-04-05 06:30:00,
2013-04-05 01:35:00,33.1,28.2,30.15,North,352,5.0,8.0,82,0.00,,CLR,0.00,VWS V14.01,2013-04-05 06:35:00,
2013-04-05 01:40:00,33.1,28.2,30.15,NNW,347,6.0,10.0,82,0.00,,CLR,0.00,VWS V14.01,2013-04-05 06:40:00,
2013-04-05 01:45:00,33.0,28.1,30.15,North,6,4.0,10.0,82,0.00,,CLR,0.00,VWS V14.01,2013-04-05 06:45:00,
2013-04-05 01:50:00,32.9,28.3,30.15,North,352,3.0,10.0,83,0.00,,CLR,0.00,VWS V14.01,2013-04-05 06:50:00,
2013-04-05 01:55:00,32.8,28.2,30.15,North,4,7.0,10.0,83,0.00,,CLR,0.00,VWS V14.01,2013-04-05 06:55:00,
2013-04-05 02:00:00,32.7,28.1,30.15,NNW,330,3.0,10.0,83,0.00,,CLR,0.00,VWS V14.01,2013-04-05 07:00:00,
2013-04-05 02:05:00,32.6,28.0,30.15,NNE,25,4.0,7.0,83,0.00,,CLR,0.00,VWS V14.01,2013-04-05 07:05:00,
2013-04-05 02:10:00,32.5,28.2,30.15,NNW,334,4.0,8.0,84,0.00,,CLR,0.00,VWS V14.01,2013-04-05 07:10:00,
2013-04-05 02:15:00,32.4,28.1,30.15,NNW,338,3.0,8.0,84,0.00,,CLR,0.00,VWS V14.01,2013-04-05 07:15:00,
2013-04-05 02:20:00,32.3,28.0,30.15,North,354,4.0,8.0,84,0.00,,CLR,0.00,VWS V14.01,2013-04-05 07:20:00,
2013-04-05 02:25:00,32.2,28.2,30.15,North,8,1.0,8.0,85,0.00,,CLR,0.00,VWS V14.01,2013-04-05 07:25:00,
2013-04-05 02:30:00,32.2,28.2,30.15,NNW,336,3.0,8.0,85,0.00,,CLR,0.00,VWS V14.01,2013-04-05 07:30:00,
2013-04-05 02:35:00,32.2,28.2,30.16,NNW,346,2.0,5.0,85,0.00,,CLR,0.00,VWS V14.01,2013-04-05 07:35:00,
2013-04-05 02:40:00,32.1,28.1,30.16,NNW,336,1.0,5.0,85,0.00,,CLR,0.00,VWS V14.01,2013-04-05 07:40:00,
2013-04-05 02:45:00,32.1,28.1,30.16,NNE,15,0.0,5.0,85,0.00,,CLR,0.00,VWS V14.01,2013-04-05 07:45:00,
2013-04-05 02:50:00,32.0,28.0,30.16,North,6,2.0,5.0,85,0.00,,CLR,0.00,VWS V14.01,2013-04-05 07:50:00,
2013-04-05 02:55:00,31.9,27.9,30.16,North,358,1.0,5.0,85,0.00,,CLR,0.00,VWS V14.01,2013-04-05 07:55:00,
2013-04-05 03:00:00,31.7,27.7,30.16,NW,325,1.0,5.0,85,0.00,,CLR,0.00,VWS V14.01,2013-04-05 08:00:00,
2013-04-05 03:05:00,31.5,27.5,30.16,North,352,2.0,5.0,85,0.00,,OVC110,0.00,VWS V14.01,2013-04-05 08:05:00,
2013-04-05 03:10:00,31.4,27.7,30.16,NW,321,2.0,5.0,86,0.00,,OVC110,0.00,VWS V14.01,2013-04-05 08:10:00,
2013-04-05 03:15:00,31.3,27.6,30.16,North,356,0.0,5.0,86,0.00,,OVC110,0.00,VWS V14.01,2013-04-05 08:15:00,
2013-04-05 03:20:00,31.1,27.4,30.16,North,4,0.0,5.0,86,0.00,,OVC110,0.00,VWS V14.01,2013-04-05 08:20:00,
2013-04-05 03:25:00,31.0,27.3,30.16,North,356,2.0,5.0,86,0.00,,OVC110,0.00,VWS V14.01,2013-04-05 08:25:00,
2013-04-05 03:30:00,31.0,27.6,30.16,NNW,342,1.0,5.0,87,0.00,,OVC110,0.00,VWS V14.01,2013-04-05 08:30:00,
2013-04-05 03:35:00,30.9,27.5,30.17,North,6,1.0,3.0,87,0.00,,OVC110,0.00,VWS V14.01,2013-04-05 08:35:00,
2013-04-05 03:40:00,30.8,27.4,30.16,North,356,4.0,4.0,87,0.00,,OVC110,0.00,VWS V14.01,2013-04-05 08:40:00,
2013-04-05 03:45:00,30.8,27.4,30.16,NNW,345,2.0,4.0,87,0.00,,OVC110,0.00,VWS V14.01,2013-04-05 08:45:00,
2013-04-05 03:50:00,30.8,27.4,30.16,NE,46,2.0,4.0,87,0.00,,OVC110,0.00,VWS V14.01,2013-04-05 08:50:00,
2013-04-05 03:55:00,30.7,27.3,30.17,North,9,2.0,4.0,87,0.00,,OVC110,0.00,VWS V14.01,2013-04-05 08:55:00,
2013-04-05 04:00:00,30.7,27.3,30.17,NNE,17,1.0,4.0,87,0.00,,OVC110,0.00,VWS V14.01,2013-04-05 09:00:00,
2013-04-05 04:05:00,30.7,27.3,30.17,NNW,346,1.0,4.0,87,0.00,,CLR,0.00,VWS V14.01,2013-04-05 09:05:00,
2013-04-05 04:10:00,30.6,27.2,30.17,NNW,344,1.0,4.0,87,0.00,,CLR,0.00,VWS V14.01,2013-04-05 09:10:00,
2013-04-05 04:15:00,30.7,27.3,30.17,NNW,342,2.0,4.0,87,0.00,,CLR,0.00,VWS V14.01,2013-04-05 09:15:00,
2013-04-05 04:20:00,30.8,27.4,30.17,NE,34,1.0,5.0,87,0.00,,CLR,0.00,VWS V14.01,2013-04-05 09:20:00,
2013-04-05 04:25:00,30.8,27.4,30.17,North,354,0.0,5.0,87,0.00,,CLR,0.00,VWS V14.01,2013-04-05 09:25:00,
2013-04-05 04:30:00,30.7,27.3,30.18,North,6,1.0,5.0,87,0.00,,CLR,0.00,VWS V14.01,2013-04-05 09:30:00,
2013-04-05 04:35:00,30.6,27.2,30.18,NNW,346,2.0,3.0,87,0.00,,CLR,0.00,VWS V14.01,2013-04-05 09:35:00,
2013-04-05 04:40:00,30.6,27.2,30.18,NNW,343,1.0,3.0,87,0.00,,CLR,0.00,VWS V14.01,2013-04-05 09:40:00,
2013-04-05 04:45:00,30.6,27.2,30.18,NNW,332,1.0,4.0,87,0.00,,CLR,0.00,VWS V14.01,2013-04-05 09:45:00,
2013-04-05 04:50:00,30.6,27.2,30.18,NNW,340,3.0,4.0,87,0.00,,CLR,0.00,VWS V14.01,2013-04-05 09:50:00,
2013-04-05 04:55:00,30.6,27.2,30.18,NNW,332,1.0,4.0,87,0.00,,CLR,0.00,VWS V14.01,2013-04-05 09:55:00,
2013-04-05 05:00:00,30.6,27.2,30.18,North,349,2.0,4.0,87,0.00,,BKN100,0.00,VWS V14.01,2013-04-05 10:00:00,
2013-04-05 05:05:00,30.7,27.3,30.18,NNW,328,0.0,4.0,87,0.00,,BKN100,0.00,VWS V14.01,2013-04-05 10:05:00,
2013-04-05 05:10:00,30.7,27.3,30.18,North,353,2.0,4.0,87,0.00,,BKN100,0.00,VWS V14.01,2013-04-05 10:10:00,
2013-04-05 05:15:00,30.7,27.0,30.18,North,358,3.0,5.0,86,0.00,,BKN100,0.00,VWS V14.01,2013-04-05 10:15:00,
2013-04-05 05:20:00,30.7,27.0,30.18,North,11,2.0,5.0,86,0.00,,BKN100,0.00,VWS V14.01,2013-04-05 10:20:00,
2013-04-05 05:25:00,30.8,27.1,30.18,North,9,4.0,7.0,86,0.00,,BKN100,0.00,VWS V14.01,2013-04-05 10:25:00,
2013-04-05 05:30:00,30.8,26.8,30.18,North,9,2.0,7.0,85,0.00,,BKN100,0.00,VWS V14.01,2013-04-05 10:30:00,
2013-04-05 05:35:00,30.9,26.9,30.18,North,356,4.0,6.0,85,0.00,,BKN100,0.00,VWS V14.01,2013-04-05 10:35:00,
2013-04-05 05:40:00,31.0,26.7,30.19,NNW,345,1.0,6.0,84,0.00,,BKN100,0.00,VWS V14.01,2013-04-05 10:40:00,
2013-04-05 05:45:00,31.0,26.7,30.18,NE,39,2.0,6.0,84,0.00,,BKN100,0.00,VWS V14.01,2013-04-05 10:45:00,
2013-04-05 05:50:00,31.0,26.7,30.18,NNE,17,2.0,6.0,84,0.00,,BKN100,0.00,VWS V14.01,2013-04-05 10:50:00,
2013-04-05 05:55:00,31.0,26.7,30.19,North,7,1.0,6.0,84,0.00,,BKN100,0.00,VWS V14.01,2013-04-05 10:55:00,
2013-04-05 06:00:00,31.1,26.5,30.18,NE,36,0.0,6.0,83,0.00,,OVC100,0.00,VWS V14.01,2013-04-05 11:00:00,
2013-04-05 06:05:00,31.1,26.3,30.19,NNE,13,2.0,6.0,82,0.00,,OVC100,0.00,VWS V14.01,2013-04-05 11:05:00,
2013-04-05 06:10:00,31.1,26.3,30.18,NNE,15,0.0,6.0,82,0.00,,OVC100,0.00,VWS V14.01,2013-04-05 11:10:00,
2013-04-05 06:15:00,31.0,26.2,30.19,NNE,15,2.0,6.0,82,0.00,,OVC100,0.00,VWS V14.01,2013-04-05 11:15:00,
2013-04-05 06:20:00,30.9,26.4,30.19,NNE,25,1.0,6.0,83,0.00,,OVC100,0.00,VWS V14.01,2013-04-05 11:20:00,
2013-04-05 06:25:00,30.8,26.3,30.18,NNE,30,1.0,6.0,83,0.00,,OVC100,0.00,VWS V14.01,2013-04-05 11:25:00,
2013-04-05 06:30:00,30.8,26.3,30.19,NNE,19,3.0,6.0,83,0.00,,OVC100,0.00,VWS V14.01,2013-04-05 11:30:00,
2013-04-05 06:35:00,30.9,26.4,30.18,NNE,28,1.0,3.0,83,0.00,,OVC100,0.00,VWS V14.01,2013-04-05 11:35:00,
2013-04-05 06:40:00,31.0,26.5,30.19,NNE,26,2.0,3.0,83,0.00,,OVC100,0.00,VWS V14.01,2013-04-05 11:40:00,
2013-04-05 06:45:00,31.1,26.5,30.19,NNE,25,0.0,3.0,83,0.00,,OVC100,0.00,VWS V14.01,2013-04-05 11:45:00,
2013-04-05 06:50:00,31.1,26.5,30.19,NNE,18,1.0,3.0,83,0.00,,OVC100,0.00,VWS V14.01,2013-04-05 11:50:00,
2013-04-05 06:55:00,31.1,26.5,30.19,NNE,25,0.0,3.0,83,0.00,,OVC100,0.00,VWS V14.01,2013-04-05 11:55:00,
2013-04-05 07:00:00,31.1,26.5,30.19,NNE,25,0.0,3.0,83,0.00,,OVC100,0.00,VWS V14.01,2013-04-05 12:00:00,
2013-04-05 07:05:00,31.0,26.5,30.19,NE,54,1.0,3.0,83,0.00,,OVC100,0.00,VWS V14.01,2013-04-05 12:05:00,
2013-04-05 07:10:00,30.8,26.5,30.18,NE,55,2.0,4.0,84,0.00,,OVC100,0.00,VWS V14.01,2013-04-05 12:10:00,
2013-04-05 07:15:00,30.7,26.5,30.19,ENE,60,0.0,4.0,84,0.00,,OVC100,0.00,VWS V14.01,2013-04-05 12:15:00,
2013-04-05 07:20:00,30.7,26.5,30.19,ENE,60,0.0,4.0,84,0.00,,OVC100,0.00,VWS V14.01,2013-04-05 12:20:00,
2013-04-05 07:25:00,30.8,26.8,30.19,ENE,63,1.0,4.0,85,0.00,,OVC100,0.00,VWS V14.01,2013-04-05 12:25:00,
2013-04-05 07:30:00,31.1,26.8,30.19,NE,56,1.0,4.0,84,0.00,,OVC100,0.00,VWS V14.01,2013-04-05 12:30:00,
2013-04-05 07:35:00,31.5,27.2,30.19,ENE,65,2.0,3.0,84,0.00,,OVC100,0.00,VWS V14.01,2013-04-05 12:35:00,
2013-04-05 07:40:00,31.8,27.5,30.20,ENE,64,0.0,3.0,84,0.00,,OVC100,0.00,VWS V14.01,2013-04-05 12:40:00,
2013-04-05 07:45:00,32.1,27.5,30.20,ENE,64,1.0,3.0,83,0.00,,OVC100,0.00,VWS V14.01,2013-04-05 12:45:00,
2013-04-05 07:50:00,32.4,27.8,30.20,ENE,71,2.0,3.0,83,0.00,,OVC100,0.00,VWS V14.01,2013-04-05 12:50:00,
2013-04-05 07:55:00,32.6,27.7,30.20,ENE,60,3.0,3.0,82,0.00,,OVC100,0.00,VWS V14.01,2013-04-05 12:55:00,
2013-04-05 08:00:00,32.9,27.7,30.20,ENE,70,1.0,4.0,81,0.00,,CLR,0.00,VWS V14.01,2013-04-05 13:00:00,
2013-04-05 08:05:00,33.1,27.6,30.20,ENE,65,2.0,3.0,80,0.00,,CLR,0.00,VWS V14.01,2013-04-05 13:05:00,
2013-04-05 08:10:00,33.4,27.9,30.20,ENE,65,2.0,4.0,80,0.00,,CLR,0.00,VWS V14.01,2013-04-05 13:10:00,
2013-04-05 08:15:00,33.6,27.8,30.21,ENE,62,2.0,4.0,79,0.00,,CLR,0.00,VWS V14.01,2013-04-05 13:15:00,
2013-04-05 08:20:00,33.9,28.1,30.21,ENE,74,3.0,5.0,79,0.00,,CLR,0.00,VWS V14.01,2013-04-05 13:20:00,
2013-04-05 08:25:00,34.1,28.0,30.20,ENE,75,2.0,5.0,78,0.00,,CLR,0.00,VWS V14.01,2013-04-05 13:25:00,
2013-04-05 08:30:00,34.3,27.9,30.20,East,80,2.0,5.0,77,0.00,,CLR,0.00,VWS V14.01,2013-04-05 13:30:00,
2013-04-05 08:35:00,34.6,27.5,30.20,East,82,2.0,6.0,75,0.00,,CLR,0.00,VWS V14.01,2013-04-05 13:35:00,
2013-04-05 08:40:00,35.0,27.9,30.20,ENE,72,2.0,6.0,75,0.00,,CLR,0.00,VWS V14.01,2013-04-05 13:40:00,
2013-04-05 08:45:00,35.3,27.5,30.20,ENE,70,3.0,6.0,73,0.00,,CLR,0.00,VWS V14.01,2013-04-05 13:45:00,
2013-04-05 08:50:00,35.8,28.0,30.20,ESE,114,6.0,6.0,73,0.00,,CLR,0.00,VWS V14.01,2013-04-05 13:50:00,
2013-04-05 08:55:00,36.3,27.1,30.20,East,90,3.0,8.0,69,0.00,,CLR,0.00,VWS V14.01,2013-04-05 13:55:00,
2013-04-05 09:00:00,36.8,27.6,30.20,ENE,75,3.0,8.0,69,0.00,,CLR,0.00,VWS V14.01,2013-04-05 14:00:00,
2013-04-05 09:05:00,37.1,26.8,30.20,ENE,74,4.0,8.0,66,0.00,,CLR,0.00,VWS V14.01,2013-04-05 14:05:00,
2013-04-05 09:10:00,37.2,27.3,30.20,ENE,76,3.0,11.0,67,0.00,,CLR,0.00,VWS V14.01,2013-04-05 14:10:00,
2013-04-05 09:15:00,37.6,28.0,30.20,ENE,70,2.0,11.0,68,0.00,,CLR,0.00,VWS V14.01,2013-04-05 14:15:00,
2013-04-05 09:20:00,37.7,27.4,30.20,SE,124,3.0,11.0,66,0.00,,CLR,0.00,VWS V14.01,2013-04-05 14:20:00,
2013-04-05 09:25:00,37.8,27.1,30.20,East,96,9.0,11.0,65,0.00,,CLR,0.00,VWS V14.01,2013-04-05 14:25:00,
2013-04-05 09:30:00,37.9,27.6,30.19,ENE,78,6.0,11.0,66,0.00,,CLR,0.00,VWS V14.01,2013-04-05 14:30:00,
2013-04-05 09:36:00,38.1,27.4,30.19,ESE,119,10.0,15.0,65,0.00,,CLR,0.00,VWS V14.01,2013-04-05 14:36:00,
2013-04-05 09:41:00,37.9,26.8,30.19,ESE,115,9.0,15.0,64,0.00,,CLR,0.00,VWS V14.01,2013-04-05 14:41:00,
2013-04-05 09:46:00,38.1,27.0,30.19,East,82,9.0,15.0,64,0.00,,CLR,0.00,VWS V14.01,2013-04-05 14:46:00,
2013-04-05 09:51:00,38.3,27.6,30.18,East,84,7.0,15.0,65,0.00,,CLR,0.00,VWS V14.01,2013-04-05 14:51:00,
2013-04-05 09:56:00,38.9,28.1,30.18,ESE,106,7.0,15.0,65,0.00,,CLR,0.00,VWS V14.01,2013-04-05 14:56:00,
2013-04-05 10:01:00,39.2,27.7,30.18,East,99,10.0,12.0,63,0.00,,CLR,0.00,VWS V14.01,2013-04-05 15:01:00,
2013-04-05 10:06:00,39.0,25.9,30.18,ESE,107,11.0,17.0,59,0.00,,CLR,0.00,VWS V14.01,2013-04-05 15:06:00,
2013-04-05 10:11:00,38.6,27.9,30.18,SE,124,12.0,17.0,65,0.00,,CLR,0.00,VWS V14.01,2013-04-05 15:11:00,
2013-04-05 10:16:00,38.5,27.0,30.18,East,99,9.0,17.0,63,0.00,,CLR,0.00,VWS V14.01,2013-04-05 15:16:00,
2013-04-05 10:22:00,38.5,28.1,30.18,ESE,121,13.0,17.0,66,0.00,,CLR,0.00,VWS V14.01,2013-04-05 15:22:00,
2013-04-05 10:27:00,38.5,27.4,30.18,ESE,109,14.0,17.0,64,0.00,,CLR,0.00,VWS V14.01,2013-04-05 15:27:00,
2013-04-05 10:31:00,39.3,28.2,30.18,ESE,107,9.0,14.0,64,0.00,,CLR,0.00,VWS V14.01,2013-04-05 15:31:00,
2013-04-05 10:36:00,39.6,28.1,30.18,ESE,111,12.0,17.0,63,0.00,,CLR,0.00,VWS V14.01,2013-04-05 15:36:00,
2013-04-05 10:41:00,39.6,28.8,30.18,ESE,113,10.0,17.0,65,0.00,,CLR,0.00,VWS V14.01,2013-04-05 15:41:00,
2013-04-05 10:46:00,40.1,28.5,30.19,ESE,111,12.0,17.0,63,0.00,,CLR,0.00,VWS V14.01,2013-04-05 15:46:00,
2013-04-05 10:51:00,40.0,28.4,30.18,ESE,117,11.0,17.0,63,0.00,,CLR,0.00,VWS V14.01,2013-04-05 15:51:00,
2013-04-05 10:56:00,40.1,28.9,30.18,East,101,12.0,17.0,64,0.00,,CLR,0.00,VWS V14.01,2013-04-05 15:56:00,
2013-04-05 11:01:00,40.2,28.6,30.18,SSE,148,11.0,13.0,63,0.00,,BKN100,0.00,VWS V14.01,2013-04-05 16:01:00,
2013-04-05 11:07:00,40.1,28.9,30.18,ESE,105,12.0,16.0,64,0.00,,BKN100,0.00,VWS V14.01,2013-04-05 16:07:00,
2013-04-05 11:12:00,40.0,29.2,30.18,ESE,120,10.0,16.0,65,0.00,,BKN100,0.00,VWS V14.01,2013-04-05 16:12:00,
2013-04-05 11:17:00,40.3,29.9,30.18,ESE,121,12.0,16.0,66,0.00,,BKN100,0.00,VWS V14.01,2013-04-05 16:17:00,
2013-04-05 11:22:00,40.6,29.0,30.18,SE,129,12.0,16.0,63,0.00,,BKN100,0.00,VWS V14.01,2013-04-05 16:22:00,
2013-04-05 11:27:00,40.9,29.7,30.18,SE,139,11.0,16.0,64,0.00,,BKN100,0.00,VWS V14.01,2013-04-05 16:27:00,
2013-04-05 11:32:00,40.8,28.8,30.18,SE,138,9.0,12.0,62,0.00,,BKN100,0.00,VWS V14.01,2013-04-05 16:32:00,
2013-04-05 11:37:00,40.9,30.4,30.18,ESE,114,9.0,13.0,66,0.00,,BKN100,0.00,VWS V14.01,2013-04-05 16:37:00,
2013-04-05 11:42:00,40.9,29.3,30.18,SE,124,8.0,13.0,63,0.00,,BKN100,0.00,VWS V14.01,2013-04-05 16:42:00,
2013-04-05 11:47:00,41.2,30.3,30.19,ESE,122,10.0,13.0,65,0.00,,BKN100,0.00,VWS V14.01,2013-04-05 16:47:00,
2013-04-05 11:52:00,41.6,30.0,30.19,SE,132,11.0,13.0,63,0.00,,BKN100,0.00,VWS V14.01,2013-04-05 16:52:00,
2013-04-05 11:57:00,41.3,29.7,30.19,SE,124,8.0,13.0,63,0.00,,BKN100,0.00,VWS V14.01,2013-04-05 16:57:00,
2013-04-05 12:02:00,41.3,30.4,30.18,SE,139,10.0,11.0,65,0.00,,OVC085,0.00,VWS V14.01,2013-04-05 17:02:00,
2013-04-05 12:07:00,41.5,29.9,30.18,ESE,120,10.0,14.0,63,0.00,,OVC085,0.00,VWS V14.01,2013-04-05 17:07:00,
2013-04-05 12:12:00,41.4,29.8,30.18,SE,135,10.0,15.0,63,0.00,,OVC085,0.00,VWS V14.01,2013-04-05 17:12:00,
2013-04-05 12:17:00,41.3,30.1,30.18,ESE,113,11.0,15.0,64,0.00,,OVC085,0.00,VWS V14.01,2013-04-05 17:17:00,
2013-04-05 12:22:00,41.3,30.1,30.17,ESE,122,8.0,15.0,64,0.00,,OVC085,0.00,VWS V14.01,2013-04-05 17:22:00,
2013-04-05 12:27:00,41.5,30.6,30.17,SE,133,7.0,15.0,65,0.00,,OVC085,0.00,VWS V14.01,2013-04-05 17:27:00,
2013-04-05 12:32:00,41.7,30.8,30.17,SE,124,10.0,11.0,65,0.00,,OVC085,0.00,VWS V14.01,2013-04-05 17:32:00,
2013-04-05 12:37:00,41.7,30.0,30.16,ESE,109,12.0,13.0,63,0.00,,OVC085,0.00,VWS V14.01,2013-04-05 17:37:00,
2013-04-05 12:42:00,41.7,30.8,30.15,SE,127,10.0,14.0,65,0.00,,OVC085,0.00,VWS V14.01,2013-04-05 17:42:00,
2013-04-05 12:47:00,42.0,29.9,30.15,SE,136,10.0,15.0,62,0.00,,OVC085,0.00,VWS V14.01,2013-04-05 17:47:00,
2013-04-05 12:52:00,42.4,30.3,30.15,SE,132,12.0,15.0,62,0.00,,OVC085,0.00,VWS V14.01,2013-04-05 17:52:00,
2013-04-05 12:57:00,42.8,31.1,30.15,ESE,121,11.0,15.0,63,0.00,,OVC085,0.00,VWS V14.01,2013-04-05 17:57:00,
2013-04-05 13:02:00,43.1,32.2,30.14,SE,125,11.0,15.0,65,0.00,,OVC080,0.00,VWS V14.01,2013-04-05 18:02:00,
2013-04-05 13:07:00,43.2,29.0,30.13,SE,134,13.0,17.0,57,0.00,,OVC080,0.00,VWS V14.01,2013-04-05 18:07:00,
2013-04-05 13:12:00,43.4,29.6,30.13,ESE,109,13.0,17.0,58,0.00,,OVC080,0.00,VWS V14.01,2013-04-05 18:12:00,
2013-04-05 13:17:00,43.3,30.0,30.12,ESE,121,13.0,19.0,59,0.00,,OVC080,0.00,VWS V14.01,2013-04-05 18:17:00,
2013-04-05 13:22:00,43.4,29.6,30.12,East,101,11.0,19.0,58,0.00,,OVC080,0.00,VWS V14.01,2013-04-05 18:22:00,
2013-04-05 13:27:00,43.5,29.7,30.12,ESE,119,15.0,19.0,58,0.00,,OVC080,0.00,VWS V14.01,2013-04-05 18:27:00,
2013-04-05 13:32:00,43.7,30.7,30.12,ESE,118,9.0,13.0,60,0.00,,OVC080,0.00,VWS V14.01,2013-04-05 18:32:00,
2013-04-05 13:37:00,43.7,30.3,30.11,SE,124,11.0,17.0,59,0.00,,OVC080,0.00,VWS V14.01,2013-04-05 18:37:00,
2013-04-05 13:42:00,43.7,30.3,30.12,ESE,118,16.0,18.0,59,0.00,,OVC080,0.00,VWS V14.01,2013-04-05 18:42:00,
2013-04-05 13:47:00,43.6,30.6,30.11,SE,129,12.0,18.0,60,0.00,,OVC080,0.00,VWS V14.01,2013-04-05 18:47:00,
2013-04-05 13:52:00,43.6,29.8,30.11,ESE,113,14.0,18.0,58,0.00,,OVC080,0.00,VWS V14.01,2013-04-05 18:52:00,
2013-04-05 13:57:00,43.8,30.8,30.11,ESE,118,11.0,18.0,60,0.00,,OVC075,0.00,VWS V14.01,2013-04-05 18:57:00,
2013-04-05 14:02:00,44.0,30.2,30.11,SE,134,12.0,13.0,58,0.00,,OVC075,0.00,VWS V14.01,2013-04-05 19:02:00,
2013-04-05 14:07:00,44.1,30.3,30.11,SE,125,13.0,17.0,58,0.00,,OVC075,0.00,VWS V14.01,2013-04-05 19:07:00,
2013-04-05 14:12:00,44.2,30.8,30.11,SE,126,11.0,17.0,59,0.00,,OVC075,0.00,VWS V14.01,2013-04-05 19:12:00,
2013-04-05 14:17:00,44.3,30.5,30.11,SE,127,9.0,17.0,58,0.00,,OVC075,0.00,VWS V14.01,2013-04-05 19:17:00,
2013-04-05 14:22:00,44.7,31.7,30.11,ESE,111,9.0,17.0,60,0.00,,OVC075,0.00,VWS V14.01,2013-04-05 19:22:00,
2013-04-05 14:27:00,44.9,31.5,30.11,SE,139,11.0,17.0,59,0.00,,OVC075,0.00,VWS V14.01,2013-04-05 19:27:00,
2013-04-05 14:32:00,45.1,30.8,30.11,SE,134,10.0,13.0,57,0.00,,OVC075,0.00,VWS V14.01,2013-04-05 19:32:00,
2013-04-05 14:37:00,45.3,31.8,30.10,SE,132,12.0,17.0,59,0.00,,OVC075,0.00,VWS V14.01,2013-04-05 19:37:00,
2013-04-05 14:42:00,45.5,32.8,30.10,SSE,148,9.0,17.0,61,0.00,,OVC075,0.00,VWS V14.01,2013-04-05 19:42:00,
2013-04-05 14:47:00,45.7,30.0,30.10,SE,143,8.0,17.0,54,0.00,,OVC075,0.00,VWS V14.01,2013-04-05 19:47:00,
2013-04-05 14:52:00,46.0,31.6,30.09,ESE,121,13.0,18.0,57,0.00,,OVC075,0.00,VWS V14.01,2013-04-05 19:52:00,
2013-04-05 14:57:00,46.2,31.4,30.09,SE,141,10.0,18.0,56,0.00,,OVC075,0.00,VWS V14.01,2013-04-05 19:57:00,
2013-04-05 15:02:00,46.3,31.0,30.08,SE,136,14.0,18.0,55,0.00,,OVC070,0.00,VWS V14.01,2013-04-05 20:02:00,
2013-04-05 15:08:00,46.3,31.5,30.07,SE,133,12.0,18.0,56,0.00,,OVC070,0.00,VWS V14.01,2013-04-05 20:08:00,
2013-04-05 15:13:00,46.4,32.9,30.07,ESE,115,13.0,18.0,59,0.00,,OVC070,0.00,VWS V14.01,2013-04-05 20:13:00,
2013-04-05 15:18:00,46.6,33.5,30.07,ESE,119,11.0,18.0,60,0.00,,OVC070,0.00,VWS V14.01,2013-04-05 20:18:00,
2013-04-05 15:23:00,46.7,31.9,30.07,SE,129,15.0,18.0,56,0.00,,OVC070,0.00,VWS V14.01,2013-04-05 20:23:00,
2013-04-05 15:28:00,46.7,33.2,30.06,ESE,106,18.0,18.0,59,0.00,,OVC070,0.00,VWS V14.01,2013-04-05 20:28:00,
2013-04-05 15:33:00,46.9,32.9,30.06,SE,139,14.0,19.0,58,0.00,,OVC070,0.00,VWS V14.01,2013-04-05 20:33:00,
2013-04-05 15:38:00,47.1,31.3,30.06,SE,132,14.0,19.0,54,0.00,,OVC070,0.00,VWS V14.01,2013-04-05 20:38:00,
2013-04-05 15:43:00,47.1,31.8,30.05,SE,139,11.0,19.0,55,0.00,,OVC070,0.00,VWS V14.01,2013-04-05 20:43:00,
2013-04-05 15:47:00,47.1,32.2,30.05,ESE,121,15.0,19.0,56,0.00,,OVC070,0.00,VWS V14.01,2013-04-05 20:47:00,
2013-04-05 15:53:00,46.9,31.1,30.06,SE,128,11.0,19.0,54,0.00,,OVC070,0.00,VWS V14.01,2013-04-05 20:53:00,
2013-04-05 15:58:00,47.1,32.2,30.05,ESE,121,14.0,19.0,56,0.00,,OVC070,0.00,VWS V14.01,2013-04-05 20:58:00,
2013-04-05 16:03:00,47.2,33.2,30.04,ESE,121,13.0,16.0,58,0.00,,FEW075,0.00,VWS V14.01,2013-04-05 21:03:00,
2013-04-05 16:08:00,47.1,33.1,30.03,SE,128,15.0,18.0,58,0.00,,FEW075,0.00,VWS V14.01,2013-04-05 21:08:00,
2013-04-05 16:13:00,47.3,34.1,30.04,ESE,111,15.0,18.0,60,0.00,,FEW075,0.00,VWS V14.01,2013-04-05 21:13:00,
2013-04-05 16:18:00,47.5,33.0,30.04,ESE,113,16.0,18.0,57,0.00,,FEW075,0.00,VWS V14.01,2013-04-05 21:18:00,
2013-04-05 16:23:00,47.9,33.4,30.04,ESE,119,14.0,18.0,57,0.00,,FEW075,0.00,VWS V14.01,2013-04-05 21:23:00,
2013-04-05 16:28:00,48.0,32.6,30.03,ESE,121,15.0,20.0,55,0.00,,FEW075,0.00,VWS V14.01,2013-04-05 21:28:00,
2013-04-05 16:33:00,48.0,33.1,30.03,SE,131,13.0,17.0,56,0.00,,FEW075,0.00,VWS V14.01,2013-04-05 21:33:00,
2013-04-05 16:38:00,48.1,33.6,30.03,ESE,121,13.0,18.0,57,0.00,,FEW075,0.00,VWS V14.01,2013-04-05 21:38:00,
2013-04-05 16:43:00,48.2,33.7,30.02,ESE,119,13.0,18.0,57,0.00,,FEW075,0.00,VWS V14.01,2013-04-05 21:43:00,
2013-04-05 16:48:00,48.2,32.8,30.02,ESE,115,14.0,21.0,55,0.00,,FEW075,0.00,VWS V14.01,2013-04-05 21:48:00,
2013-04-05 16:53:00,48.2,32.3,30.01,ESE,108,15.0,21.0,54,0.00,,FEW075,0.00,VWS V14.01,2013-04-05 21:53:00,
2013-04-05 16:58:00,48.5,33.5,30.01,SE,127,12.0,21.0,56,0.00,,BKN100,0.00,VWS V14.01,2013-04-05 21:58:00,
2013-04-05 17:03:00,48.4,32.5,30.01,ESE,120,14.0,20.0,54,0.00,,BKN100,0.00,VWS V14.01,2013-04-05 22:03:00,
2013-04-05 17:08:00,48.5,33.5,30.00,ESE,120,15.0,20.0,56,0.00,,BKN100,0.00,VWS V14.01,2013-04-05 22:08:00,
2013-04-05 17:13:00,48.4,34.3,30.00,ESE,122,15.0,20.0,58,0.00,,BKN100,0.00,VWS V14.01,2013-04-05 22:13:00,
2013-04-05 17:18:00,48.3,34.2,30.00,ESE,113,15.0,22.0,58,0.00,,BKN100,0.00,VWS V14.01,2013-04-05 22:18:00,
2013-04-05 17:23:00,48.2,34.1,29.99,ESE,117,14.0,22.0,58,0.00,,BKN100,0.00,VWS V14.01,2013-04-05 22:23:00,
2013-04-05 17:28:00,48.7,34.2,30.00,SE,124,15.0,22.0,57,0.00,,BKN100,0.00,VWS V14.01,2013-04-05 22:28:00,
2013-04-05 17:33:00,48.7,33.3,29.99,ESE,107,13.0,25.0,55,0.00,,BKN100,0.00,VWS V14.01,2013-04-05 22:33:00,
2013-04-05 17:38:00,48.4,33.0,29.99,ESE,104,15.0,25.0,55,0.00,,BKN100,0.00,VWS V14.01,2013-04-05 22:38:00,
2013-04-05 17:43:00,48.2,33.7,29.99,SE,129,16.0,25.0,57,0.00,,BKN100,0.00,VWS V14.01,2013-04-05 22:43:00,
2013-04-05 17:48:00,48.1,33.6,29.98,ESE,121,16.0,25.0,57,0.00,,BKN100,0.00,VWS V14.01,2013-04-05 22:48:00,
2013-04-05 17:53:00,48.1,33.2,29.98,SE,125,17.0,25.0,56,0.00,,BKN100,0.00,VWS V14.01,2013-04-05 22:53:00,
2013-04-05 17:58:00,48.1,33.6,29.98,SE,125,17.0,25.0,57,0.00,,SCT120,0.00,VWS V14.01,2013-04-05 22:58:00,
2013-04-05 18:03:00,48.1,34.5,29.97,ESE,111,14.0,19.0,59,0.00,,SCT120,0.00,VWS V14.01,2013-04-05 23:03:00,
2013-04-05 18:08:00,48.0,34.4,29.97,ESE,118,18.0,22.0,59,0.00,,SCT120,0.00,VWS V14.01,2013-04-05 23:08:00,
2013-04-05 18:13:00,47.8,33.8,29.96,ESE,108,16.0,24.0,58,0.00,,SCT120,0.00,VWS V14.01,2013-04-05 23:13:00,
2013-04-05 18:18:00,47.6,34.4,29.95,East,94,16.0,24.0,60,0.00,,SCT120,0.00,VWS V14.01,2013-04-05 23:18:00,
2013-04-05 18:23:00,47.4,34.2,29.95,ESE,111,23.0,24.0,60,0.00,,SCT120,0.00,VWS V14.01,2013-04-05 23:23:00,
2013-04-05 18:28:00,47.3,33.7,29.95,ESE,123,16.0,24.0,59,0.00,,SCT120,0.00,VWS V14.01,2013-04-05 23:28:00,
2013-04-05 18:33:00,47.1,33.5,29.94,ESE,106,18.0,25.0,59,0.00,,SCT120,0.00,VWS V14.01,2013-04-05 23:33:00,
2013-04-05 18:38:00,47.1,34.8,29.94,SE,126,16.0,25.0,62,0.00,,SCT120,0.00,VWS V14.01,2013-04-05 23:38:00,
2013-04-05 18:43:00,47.1,34.4,29.94,SE,128,18.0,25.0,61,0.00,,SCT120,0.00,VWS V14.01,2013-04-05 23:43:00,
2013-04-05 18:48:00,46.9,34.6,29.93,ESE,108,13.0,25.0,62,0.00,,SCT120,0.00,VWS V14.01,2013-04-05 23:48:00,
2013-04-05 18:53:00,46.7,34.0,29.94,ESE,110,14.0,25.0,61,0.00,,SCT120,0.00,VWS V14.01,2013-04-05 23:53:00,
2013-04-05 18:58:00,46.4,34.1,29.94,SE,125,17.0,25.0,62,0.00,,SCT120,0.00,VWS V14.01,2013-04-05 23:58:00,
2013-04-05 19:03:00,46.1,34.2,29.94,ESE,105,15.0,16.0,63,0.00,,CLR,0.00,VWS V14.01,2013-04-06 00:03:00,
2013-04-05 19:08:00,45.9,34.4,29.94,ESE,120,17.0,19.0,64,0.00,,CLR,0.00,VWS V14.01,2013-04-06 00:08:00,
2013-04-05 19:13:00,45.6,34.5,29.94,ESE,109,16.0,19.0,65,0.00,,CLR,0.00,VWS V14.01,2013-04-06 00:13:00,
2013-04-05 19:18:00,45.4,34.7,29.94,ESE,121,11.0,19.0,66,0.00,,CLR,0.00,VWS V14.01,2013-04-06 00:18:00,
2013-04-05 19:23:00,45.2,34.2,29.94,ESE,120,11.0,19.0,65,0.00,,CLR,0.00,VWS V14.01,2013-04-06 00:23:00,
2013-04-05 19:28:00,45.1,34.0,29.93,ESE,115,14.0,20.0,65,0.00,,CLR,0.00,VWS V14.01,2013-04-06 00:28:00,
2013-04-05 19:33:00,44.9,33.9,29.93,SE,125,15.0,18.0,65,0.00,,CLR,0.00,VWS V14.01,2013-04-06 00:33:00,
2013-04-05 19:38:00,44.7,33.7,29.92,ESE,107,14.0,20.0,65,0.00,,CLR,0.00,VWS V14.01,2013-04-06 00:38:00,
2013-04-05 19:43:00,44.6,33.6,29.92,SE,135,14.0,22.0,65,0.00,,CLR,0.00,VWS V14.01,2013-04-06 00:43:00,
2013-04-05 19:48:00,44.2,34.0,29.92,SE,124,12.0,22.0,67,0.00,,CLR,0.00,VWS V14.01,2013-04-06 00:48:00,
2013-04-05 19:53:00,43.9,33.7,29.92,ESE,108,13.0,22.0,67,0.00,,CLR,0.00,VWS V14.01,2013-04-06 00:53:00,
2013-04-05 19:58:00,43.6,33.8,29.92,ESE,116,12.0,22.0,68,0.00,,CLR,0.00,VWS V14.01,2013-04-06 00:58:00,
2013-04-05 20:03:00,43.6,33.8,29.92,ESE,118,12.0,15.0,68,0.00,,SCT120,0.00,VWS V14.01,2013-04-06 01:03:00,
2013-04-05 20:08:00,43.5,33.3,29.92,ESE,105,12.0,17.0,67,0.00,,SCT120,0.00,VWS V14.01,2013-04-06 01:08:00,
2013-04-05 20:13:00,43.4,33.6,29.93,ESE,112,11.0,17.0,68,0.00,,SCT120,0.00,VWS V14.01,2013-04-06 01:13:00,
2013-04-05 20:18:00,43.1,33.3,29.93,ESE,115,10.0,17.0,68,0.00,,SCT120,0.00,VWS V14.01,2013-04-06 01:18:00,
2013-04-05 20:23:00,42.9,33.4,29.93,ESE,110,13.0,17.0,69,0.00,,SCT120,0.00,VWS V14.01,2013-04-06 01:23:00,
2013-04-05 20:28:00,42.7,33.6,29.92,ESE,109,14.0,17.0,70,0.00,,SCT120,0.00,VWS V14.01,2013-04-06 01:28:00,
2013-04-05 20:33:00,42.6,33.5,29.92,ESE,103,13.0,15.0,70,0.00,,SCT120,0.00,VWS V14.01,2013-04-06 01:33:00,
2013-04-05 20:38:00,42.5,33.4,29.92,ESE,122,11.0,16.0,70,0.00,,SCT120,0.00,VWS V14.01,2013-04-06 01:38:00,
2013-04-05 20:43:00,42.4,33.3,29.92,ESE,115,11.0,16.0,70,0.00,,SCT120,0.00,VWS V14.01,2013-04-06 01:43:00,
2013-04-05 20:48:00,42.3,33.2,29.92,ESE,105,13.0,16.0,70,0.00,,SCT120,0.00,VWS V14.01,2013-04-06 01:48:00,
2013-04-05 20:53:00,42.3,32.9,29.92,ESE,104,12.0,16.0,69,0.00,,SCT120,0.00,VWS V14.01,2013-04-06 01:53:00,
2013-04-05 20:58:00,42.3,33.2,29.92,ESE,118,11.0,16.0,70,0.00,,FEW120,0.00,VWS V14.01,2013-04-06 01:58:00,
2013-04-05 21:03:00,42.2,33.1,29.91,ESE,113,12.0,16.0,70,0.00,,FEW120,0.00,VWS V14.01,2013-04-06 02:03:00,
2013-04-05 21:08:00,42.2,32.8,29.91,ESE,118,13.0,19.0,69,0.00,,FEW120,0.00,VWS V14.01,2013-04-06 02:08:00,
2013-04-05 21:13:00,42.2,32.8,29.91,ESE,111,14.0,19.0,69,0.00,,FEW120,0.00,VWS V14.01,2013-04-06 02:13:00,
2013-04-05 21:18:00,42.2,32.4,29.91,ESE,120,15.0,20.0,68,0.00,,FEW120,0.00,VWS V14.01,2013-04-06 02:18:00,
2013-04-05 21:23:00,42.2,32.4,29.91,ESE,121,17.0,21.0,68,0.00,,FEW120,0.00,VWS V14.01,2013-04-06 02:23:00,
2013-04-05 21:28:00,42.2,32.4,29.91,ESE,109,15.0,21.0,68,0.00,,FEW120,0.00,VWS V14.01,2013-04-06 02:28:00,
2013-04-05 21:33:00,42.2,32.4,29.91,SE,127,13.0,21.0,68,0.00,,FEW120,0.00,VWS V14.01,2013-04-06 02:33:00,
2013-04-05 21:38:00,42.2,32.4,29.90,ESE,110,13.0,21.0,68,0.00,,FEW120,0.00,VWS V14.01,2013-04-06 02:38:00,
2013-04-05 21:43:00,42.1,32.3,29.90,SE,139,16.0,21.0,68,0.00,,FEW120,0.00,VWS V14.01,2013-04-06 02:43:00,
2013-04-05 21:48:00,42.2,32.4,29.90,ESE,113,17.0,21.0,68,0.00,,FEW120,0.00,VWS V14.01,2013-04-06 02:48:00,
2013-04-05 21:53:00,42.3,32.5,29.90,ESE,111,19.0,21.0,68,0.00,,FEW120,0.00,VWS V14.01,2013-04-06 02:53:00,
2013-04-05 21:58:00,42.3,32.1,29.90,ESE,121,15.0,24.0,67,0.00,,FEW120,0.00,VWS V14.01,2013-04-06 02:58:00,
2013-04-05 22:04:00,42.2,32.4,29.90,ESE,107,15.0,24.0,68,0.00,,CLR,0.00,VWS V14.01,2013-04-06 03:04:00,
2013-04-05 22:09:00,42.2,32.8,29.90,ESE,103,13.0,24.0,69,0.00,,CLR,0.00,VWS V14.01,2013-04-06 03:09:00,
2013-04-05 22:14:00,42.1,32.7,29.89,SE,125,16.0,24.0,69,0.00,,CLR,0.00,VWS V14.01,2013-04-06 03:14:00,
2013-04-05 22:19:00,42.1,32.7,29.89,ESE,106,15.0,24.0,69,0.00,,CLR,0.00,VWS V14.01,2013-04-06 03:19:00,
2013-04-05 22:24:00,42.0,32.6,29.89,SE,126,13.0,24.0,69,0.00,,CLR,0.00,VWS V14.01,2013-04-06 03:24:00,
2013-04-05 22:29:00,42.0,32.6,29.89,ESE,121,12.0,24.0,69,0.00,,CLR,0.00,VWS V14.01,2013-04-06 03:29:00,
2013-04-05 22:34:00,41.9,32.8,29.89,SE,131,17.0,19.0,70,0.00,,CLR,0.00,VWS V14.01,2013-04-06 03:34:00,
2013-04-05 22:39:00,41.9,32.5,29.88,ESE,120,15.0,22.0,69,0.00,,CLR,0.00,VWS V14.01,2013-04-06 03:39:00,
2013-04-05 22:44:00,41.9,32.5,29.88,ESE,113,16.0,24.0,69,0.00,,CLR,0.00,VWS V14.01,2013-04-06 03:44:00,
2013-04-05 22:49:00,41.8,32.4,29.88,ESE,109,18.0,24.0,69,0.00,,CLR,0.00,VWS V14.01,2013-04-06 03:49:00,
2013-04-05 22:54:00,41.8,32.4,29.88,ESE,110,19.0,24.0,69,0.00,,CLR,0.00,VWS V14.01,2013-04-06 03:54:00,
2013-04-05 22:59:00,41.8,32.0,29.87,ESE,117,22.0,24.0,68,0.00,,CLR,0.00,VWS V14.01,2013-04-06 03:59:00,
2013-04-05 23:00:00,41.8,32.0,29.87,ESE,111,16.0,24.0,68,0.00,,CLR,0.00,VWS V14.01,2013-04-06 04:00:00,
2013-04-05 23:05:00,41.8,32.0,29.87,SE,132,17.0,25.0,68,0.00,,CLR,0.00,VWS V14.01,2013-04-06 04:05:00,
2013-04-05 23:10:00,41.8,32.0,29.86,ESE,110,18.0,25.0,68,0.00,,CLR,0.00,VWS V14.01,2013-04-06 04:10:00,
2013-04-05 23:15:00,41.6,31.8,29.86,ESE,119,21.0,25.0,68,0.00,,CLR,0.00,VWS V14.01,2013-04-06 04:15:00,
2013-04-05 23:20:00,41.5,32.1,29.86,ESE,103,15.0,25.0,69,0.00,,CLR,0.00,VWS V14.01,2013-04-06 04:20:00,
2013-04-05 23:25:00,41.2,32.2,29.86,ESE,113,17.0,25.0,70,0.00,,CLR,0.00,VWS V14.01,2013-04-06 04:25:00,
2013-04-05 23:30:00,41.0,32.3,29.86,ESE,106,12.0,25.0,71,0.00,,CLR,0.00,VWS V14.01,2013-04-06 04:30:00,
2013-04-05 23:35:00,40.8,32.1,29.86,East,88,12.0,17.0,71,0.00,,CLR,0.00,VWS V14.01,2013-04-06 04:35:00,
2013-04-05 23:40:00,40.7,32.4,29.86,East,100,12.0,18.0,72,0.00,,CLR,0.00,VWS V14.01,2013-04-06 04:40:00,
2013-04-05 23:45:00,40.6,32.3,29.86,ESE,114,13.0,18.0,72,0.00,,CLR,0.00,VWS V14.01,2013-04-06 04:45:00,
2013-04-05 23:50:00,40.5,32.5,29.86,ESE,115,11.0,18.0,73,0.00,,CLR,0.00,VWS V14.01,2013-04-06 04:50:00,
2013-04-05 23:55:00,40.6,32.3,29.85,SE,126,12.0,18.0,72,0.00,,CLR,0.00,VWS V14.01,2013-04-06 04:55:00,